Weather History for KCTY - August, 2014

Change the Weather History Date:

Monday, August 4, 2014

  Actual Average Record
Temperature  
Mean Temperature 85 °F 82 °F  
Max Temperature 95 °F 91 °F - ()
Min Temperature 74 °F 72 °F - ()
Degree Days  
Heating Degree Days 0 0  
Month to date heating degree days 0 0  
Since 1 June heating degree days 0 0  
Since 1 July heating degree days 0 0  
Cooling Degree Days 20 17  
Month to date cooling degree days 71 68  
Year to date cooling degree days 1563 1502  
Since 1 June cooling degree days 1071 1023  
Growing Degree Days 34 (Base 50)    
Moisture  
Dew Point 73 °F    
Average Humidity 79    
Maximum Humidity 94    
Minimum Humidity 49    
Precipitation  
Precipitation 0.45 in 0.22 in - ()
Month to date precipitation 0.45 0.97  
Year to date precipitation 37.01 28.89  
Sea Level Pressure  
Sea Level Pressure 29.94 in    
Wind  
Wind Speed 5 mph (North)    
Max Wind Speed 14 mph    
Max Gust Speed 19 mph    
T = Trace of Precipitation, MM = Missing Value Source: NWS Daily Summary

Daily Weather History Graph

Daily Weather History Graph

Search for Another Location

Airport or City:

Trip Planner

Search our weather history database for the weather conditions in past years. The results will help you decide how hot, cold, wet, or windy it might be!

Date:

Astronomy

Aug. 04, 2014 Rise Set
Actual Time 6:53 AM EDT 8:22 PM EDT
Civil Twilight 6:28 AM EDT 8:48 PM EDT
Nautical Twilight 5:57 AM EDT 9:18 PM EDT
Astronomical Twilight 5:25 AM EDT 9:50 PM EDT
Moon 2:35 PM EDT (8/4) 12:56 AM EDT (8/4)
Length of Visible Light 14h 20m
Length of Day
13h 28m
First Quarter, 57% of the Moon is Illuminated
Aug 4
First Quarter
Aug 10
Full
Aug 17
Last Quarter
Aug 25
New
Sep 2
First Quarter

Hourly Weather History & Observations

Time (EDT) Temp. Heat Index Dew Point Humidity Pressure Visibility Wind Dir Wind Speed Gust Speed Precip Events Conditions
12:53 AM 75.9 °F - 72.0 °F 87% 29.96 in - Calm Calm - N/A   Unknown
1:53 AM 75.2 °F - 71.6 °F 89% 29.94 in - NNE 3.5 mph - N/A   Unknown
2:53 AM 75.0 °F - 72.0 °F 90% 29.92 in - North 4.6 mph - N/A   Unknown
3:53 AM 73.9 °F - 72.0 °F 93% 29.91 in - North 3.5 mph - N/A   Unknown
4:53 AM 73.9 °F - 72.0 °F 93% 29.91 in - North 3.5 mph - N/A   Unknown
5:53 AM 73.9 °F - 72.0 °F 93% 29.91 in - North 5.8 mph - 0.01 in   Unknown
6:53 AM 73.9 °F - 72.0 °F 93% 29.94 in - North 3.5 mph - 0.01 in   Unknown
7:53 AM 75.0 °F - 73.0 °F 94% 29.96 in - Calm Calm - 0.02 in   Unknown
8:53 AM 77.0 °F - 73.0 °F 88% 29.96 in - North 9.2 mph - 0.01 in   Unknown
9:53 AM 79.0 °F - 73.9 °F 84% 29.98 in - North 5.8 mph - N/A   Unknown
10:53 AM 81.0 °F 86.2 °F 73.9 °F 79% 29.98 in - NNE 6.9 mph - N/A   Unknown
11:53 AM 86.0 °F 93.8 °F 73.9 °F 67% 29.97 in - NE 6.9 mph - N/A   Unknown
12:53 PM 88.0 °F 94.7 °F 72.0 °F 59% 29.95 in - North 6.9 mph 19.6 mph N/A   Unknown
1:53 PM 90.0 °F 96.9 °F 72.0 °F 55% 29.93 in - NNE 8.1 mph - N/A   Unknown
2:53 PM 91.0 °F 99.3 °F 73.0 °F 55% 29.92 in - North 8.1 mph 18.4 mph N/A   Unknown
3:53 PM 93.9 °F 103.4 °F 73.0 °F 51% 29.90 in - North 10.4 mph - N/A   Unknown
4:53 PM 93.9 °F 100.8 °F 71.1 °F 47% 29.88 in - NE 4.6 mph - N/A   Unknown
5:53 PM 91.0 °F 96.6 °F 70.0 °F 50% 29.89 in - NNE 6.9 mph - N/A   Unknown
6:53 PM 81.0 °F 85.8 °F 73.0 °F 77% 29.92 in - NE 6.9 mph - N/A   Unknown
7:53 PM 78.1 °F - 75.0 °F 90% 29.94 in - Calm Calm - 0.39 in   Unknown
8:53 PM 78.1 °F - 75.0 °F 90% 29.94 in - Calm Calm - 0.01 in   Unknown
9:53 PM 78.1 °F - 75.0 °F 90% 29.96 in - Calm Calm - N/A   Unknown
10:53 PM 77.0 °F - 75.0 °F 94% 29.97 in - SW 5.8 mph - N/A   Unknown
11:53 PM 75.9 °F - 73.9 °F 94% 29.97 in - NW 3.5 mph - N/A   Unknown